Flag for Germany Weather past 2 weeks in Bergisch Gladbach, North Rhine-Westphalia, Germany

Now
50 °F

Broken clouds.


Feels Like: 48 °F
Forecast: 44 / 56 °F
Wind: 5 mph from South

Location: Koeln / Bonn

Current Time: Oct 23, 2014 at 11:33:56 AM

Latest Report: Oct 23, 2014 at 10:50 AM


Visibility: N/A

Pressure: 30.24 "Hg

Humidity: 88%

Dew point: 46 °F

Location of Bergisch GladbachLocation

Historic Weather in Bergisch Gladbach — Graph

°F

Bergisch Gladbach temperature yesterday

Maximum temperature yesterday: 52 °F (at 2:20 PM)
Minimum temperature yesterday: 43 °F (at 12:20 AM)
Average temperature yesterday: 47 °F

Past Weeks' High & Low Weather Summary

 TemperatureHumidityPressure
High75 °F (Oct 19, 1:50 PM)100% (Oct 11, 3:50 AM)30.24 "Hg (Oct 11, 3:50 AM)
Low43 °F (Oct 22, 12:20 AM)46% (Oct 14, 2:50 PM)29.53 "Hg (Oct 21, 4:20 PM)
Average57 °F83%29.88 "Hg
* Reported Oct 8 10:20 AM — Oct 23 10:20 AM, Bergisch Gladbach, Weather by CustomWeather, © 2014

Note: Actual official high and low records may vary slightly from our data, if they occured in-between our weather recording intervals... More about our weather records

Advertising

Bergisch Gladbach weather history for previous 24 hours

 ConditionsComfort  
Time TempWeatherWind HumidityBarometerVisibility
10:20 AM
Oct 23
48 °FPartly sunny.5 mph94%30.24 "HgN/A
9:50 AM48 °FPartly sunny.3 mph94%30.24 "HgN/A
9:20 AM48 °FBroken clouds.5 mph94%30.24 "HgN/A
8:50 AM46 °FPartly cloudy.6 mph93%30.21 "HgN/A
8:20 AM46 °FPartly cloudy.5 mph93%30.21 "HgN/A
7:50 AM46 °FPartly cloudy.3 mph93%30.21 "HgN/A
7:20 AM46 °FPartly cloudy.2 mph93%30.21 "HgN/A
6:50 AM46 °FPassing clouds.2 mph93%30.21 "HgN/A
6:20 AM46 °FPassing clouds.2 mph93%30.21 "HgN/A
5:50 AM46 °FPartly cloudy.2 mph87%30.18 "HgN/A
5:20 AM46 °FPassing clouds.2 mph87%30.18 "HgN/A
4:50 AM46 °FPartly cloudy.5 mph87%30.18 "HgN/A
4:20 AM45 °FPassing clouds.3 mph93%30.18 "HgN/A
3:50 AM45 °FFog.2 mph93%30.21 "HgN/A
3:20 AM46 °FClear.6 mph87%30.21 "Hg10 mi
2:50 AM46 °FClear.3 mph87%30.21 "Hg10 mi
2:20 AM46 °FClear.2 mph87%30.18 "Hg10 mi
1:50 AM46 °FClear.2 mph87%30.18 "Hg10 mi
1:20 AM46 °FClear.2 mph87%30.18 "Hg10 mi
12:50 AM46 °FClear.2 mph93%30.18 "Hg10 mi
12:20 AM48 °FPassing clouds.3 mph87%30.18 "HgN/A
11:50 PM
Oct 22
48 °FPassing clouds.3 mph87%30.18 "HgN/A
11:20 PM46 °FPassing clouds.3 mph87%30.18 "HgN/A
10:50 PM48 °FPassing clouds.7 mph87%30.18 "HgN/A
10:20 PM48 °FLight rain. Passing clouds.9 mph87%30.18 "HgN/A
9:50 PM48 °FPassing clouds.8 mph87%30.18 "HgN/A
9:20 PM48 °FPassing clouds.10 mph87%30.15 "HgN/A
8:50 PM48 °FLight rain. Partly cloudy.10 mph87%30.15 "HgN/A
8:20 PM48 °FScattered showers. Partly cloudy.13 mph87%30.12 "HgN/A
7:50 PM48 °FScattered showers. Passing clouds.15 mph87%30.12 "HgN/A
7:20 PM48 °FPartly sunny.8 mph87%30.12 "HgN/A
6:50 PM46 °FPartly sunny.7 mph93%30.09 "HgN/A
6:20 PM48 °FScattered clouds.13 mph87%30.09 "HgN/A
5:50 PM48 °FSprinkles. Partly sunny.17 mph87%30.09 "HgN/A
5:20 PM50 °FRain showers. Scattered clouds.23 mph82%30.07 "HgN/A
4:20 PM52 °FScattered showers. Broken clouds.18 mph72%30.04 "HgN/A
3:50 PM52 °FPartly sunny.22 mph72%30.04 "HgN/A
3:20 PM50 °FSprinkles. Partly sunny.24 mph76%30.04 "HgN/A
2:50 PM50 °FScattered showers. Broken clouds.22 mph76%30.04 "HgN/A
2:20 PM52 °FBroken clouds.20 mph72%30.04 "HgN/A
1:50 PM50 °FBroken clouds.23 mph82%30.04 "HgN/A
1:20 PM50 °FScattered showers. Scattered clouds.22 mph82%30.04 "HgN/A
12:50 PM48 °FBroken clouds.21 mph82%30.04 "HgN/A
12:20 PM48 °FBroken clouds.17 mph82%30.04 "HgN/A
11:50 AM46 °FSprinkles. Broken clouds.18 mph87%30.04 "HgN/A
11:20 AM46 °FBroken clouds.13 mph87%30.04 "HgN/A
Weather by CustomWeather, © 2014

See weather overviewHow to use our weather pages